Location: Arcones
(41.1182°N, 3.7238°W)
Time: 04:03:00
(UTC+00:00)

IRIDIUM 106 - Pass Details

Date: 18 March 2026
Orbit: 776 x 780 km, 86.4° (Epoch: 17 April)

Event Time Altitude Azimuth Distance (km) Brightness Sun altitude
Exits shadow 21:27:37 36° 339° (NNW) 1,230 5.6 -33.5°
Drops below altitude 10° 21:30:46 10° 355° (N) 2,340 7.2 -34.0°
Sets 21:33:10 0° 359° (N) 3,271 8.0 -34.3°
